Location: Newark
(42.0700°N, 88.0492°W)
Time: 02:27:40
(UTC+00:00)

ISS - Pass Details

Date: 24 September 2019
Orbit: 411 x 421 km, 51.6° (Epoch: 23 October)

Event Time Altitude Azimuth Distance (km) Brightness Sun altitude
Rises 00:38:52 0° 250° (WSW) 2,336 1.2 -10.2°
Reaches altitude 10° 00:41:00 10° 257° (WSW) 1,476 0.2 -10.6°
Maximum altitude 00:44:12 45° 332° (NNW) 575 -2.8 -11.2°
Drops below altitude 10° 00:47:24 10° 46° (NE) 1,482 -1.3 -11.8°
Enters shadow 00:47:45 - 48° (NE) 1,617 -1.1 -11.9°
